EJU19EG LIML-LOWW

Flight info

Callsign EJU19EG
Flight time 1h 4m
Altitude 34000
Route RUVAB7AXNESTI6A/35 NESTI DCT ARALD DCT ABTAN
Aircraft A320/M-SDE2E3FGHIJ1RWXYZ/LB1

Departure

Time 2026-05-04 17:12
Airport Milano Linate Airport (LIML)

Arrival

Time 2026-05-04 18:16
Airport Vienna International Airport (LOWW)
Time Latitude Longitude Altitude Speed Heading
2026-05-04 16:21 45.45973 9.27967 360 ft 0 kts 360°
2026-05-04 17:00 45.45951 9.27968 360 ft 2 kts
2026-05-04 17:00 45.45907 9.27951 360 ft 1 kts 82°
2026-05-04 17:01 45.45907 9.27949 360 ft 0 kts 89°
2026-05-04 17:04 45.45872 9.27984 360 ft 8 kts 176°
2026-05-04 17:04 45.45668 9.27981 360 ft 18 kts 181°
2026-05-04 17:05 45.45389 9.27975 360 ft 20 kts 185°
2026-05-04 17:05 45.45105 9.27878 362 ft 23 kts 175°
2026-05-04 17:06 45.44788 9.27945 366 ft 24 kts 175°
2026-05-04 17:06 45.44613 9.27964 360 ft 26 kts 176°
2026-05-04 17:07 45.44246 9.28002 363 ft 23 kts 176°
2026-05-04 17:07 45.44136 9.28015 360 ft 25 kts 175°
2026-05-04 17:07 45.43896 9.28041 361 ft 27 kts 176°
2026-05-04 17:07 45.43705 9.28061 361 ft 25 kts 176°
2026-05-04 17:08 45.43555 9.28078 361 ft 21 kts 175°
2026-05-04 17:08 45.43443 9.27963 361 ft 4 kts 266°
2026-05-04 17:08 45.43443 9.27962 361 ft 0 kts 266°
2026-05-04 17:10 45.43443 9.27957 360 ft 3 kts 266°
2026-05-04 17:10 45.43497 9.27815 362 ft 0 kts 355°
2026-05-04 17:11 45.43533 9.27811 363 ft 21 kts 355°
2026-05-04 17:11 45.43967 9.27762 364 ft 100 kts 355°
2026-05-04 17:11 45.46001 9.27551 951 ft 164 kts 354°
2026-05-04 17:12 45.47147 9.27553 1762 ft 166 kts
2026-05-04 17:12 45.49441 9.27943 3246 ft 166 kts
2026-05-04 17:13 45.53243 9.28854 4545 ft 218 kts 25°
2026-05-04 17:14 45.57916 9.32411 6229 ft 278 kts 28°
2026-05-04 17:14 45.59642 9.33716 7263 ft 283 kts 28°
2026-05-04 17:14 45.63186 9.36393 9118 ft 294 kts 28°
2026-05-04 17:15 45.65008 9.37772 10021 ft 299 kts 28°
2026-05-04 17:15 45.68372 9.41780 10958 ft 336 kts 54°
2026-05-04 17:16 45.71138 9.47257 12510 ft 348 kts 54°
2026-05-04 17:16 45.75334 9.56018 14666 ft 363 kts 67°
2026-05-04 17:17 45.76152 9.59443 15370 ft 365 kts 79°
2026-05-04 17:17 45.76863 9.70444 17443 ft 376 kts 87°
2026-05-04 17:18 45.77062 9.74207 18130 ft 381 kts 86°
2026-05-04 17:18 45.77461 9.81845 19362 ft 387 kts 87°
2026-05-04 17:19 45.77861 9.89586 20643 ft 392 kts 87°
2026-05-04 17:19 45.78268 9.97419 21869 ft 397 kts 87°
2026-05-04 17:20 45.78664 10.05302 23060 ft 401 kts 87°
2026-05-04 17:20 45.79054 10.13330 24120 ft 407 kts 87°
2026-05-04 17:20 45.79251 10.17444 24598 ft 410 kts 87°
2026-05-04 17:21 45.79628 10.25606 25478 ft 416 kts 87°
2026-05-04 17:21 45.79995 10.33934 26361 ft 422 kts 87°
2026-05-04 17:22 45.80187 10.38148 26785 ft 425 kts 86°
2026-05-04 17:22 45.80659 10.42338 27208 ft 429 kts 76°
2026-05-04 17:23 45.84173 10.54252 28461 ft 437 kts 65°
2026-05-04 17:23 45.85467 10.58209 28861 ft 440 kts 65°
2026-05-04 17:23 45.88069 10.66207 29688 ft 445 kts 65°
2026-05-04 17:24 45.89379 10.70249 30076 ft 448 kts 65°
2026-05-04 17:24 45.93341 10.82522 31075 ft 456 kts 64°
2026-05-04 17:25 45.94680 10.86666 31368 ft 459 kts 64°
2026-05-04 17:25 45.97372 10.95030 32081 ft 461 kts 64°
2026-05-04 17:26 46.00059 11.03404 32911 ft 461 kts 64°
2026-05-04 17:26 46.04074 11.16003 34077 ft 463 kts 64°
2026-05-04 17:27 46.06719 11.24334 34174 ft 450 kts 63°
2026-05-04 17:28 46.11886 11.40615 34140 ft 445 kts 64°
2026-05-04 17:29 46.19539 11.65000 34100 ft 444 kts 64°
2026-05-04 17:31 46.25849 11.85292 34087 ft 442 kts 64°
2026-05-04 17:32 46.32105 12.05539 34073 ft 440 kts 65°
2026-05-04 17:33 46.37046 12.21653 34069 ft 439 kts 65°
2026-05-04 17:34 46.41958 12.37817 34074 ft 438 kts 66°
2026-05-04 17:35 46.48064 12.57984 34073 ft 436 kts 66°
2026-05-04 17:36 46.50482 12.66044 34069 ft 435 kts 66°
2026-05-04 17:36 46.52890 12.74103 34073 ft 435 kts 66°
2026-05-04 17:37 46.55298 12.82154 34071 ft 435 kts 66°
2026-05-04 17:37 46.57696 12.90214 34068 ft 434 kts 66°
2026-05-04 17:38 46.60087 12.98277 34065 ft 434 kts 66°
2026-05-04 17:38 46.62480 13.06334 34066 ft 434 kts 66°
2026-05-04 17:39 46.66037 13.18423 34067 ft 433 kts 67°
2026-05-04 17:39 46.68405 13.26500 34052 ft 433 kts 66°
2026-05-04 17:40 46.71048 13.34406 34050 ft 433 kts 62°
2026-05-04 17:40 46.73909 13.42121 34040 ft 434 kts 61°
2026-05-04 17:41 46.76756 13.49874 34040 ft 433 kts 62°
2026-05-04 17:41 46.79529 13.57693 34029 ft 434 kts 62°
2026-05-04 17:42 46.82268 13.65540 34033 ft 434 kts 62°
2026-05-04 17:42 46.85022 13.73397 34019 ft 434 kts 62°
2026-05-04 17:43 46.87759 13.81197 34015 ft 434 kts 62°
2026-05-04 17:43 46.90501 13.89059 34016 ft 434 kts 62°
2026-05-04 17:44 46.93197 13.96951 34012 ft 433 kts 69°
2026-05-04 17:44 46.95096 14.05307 33797 ft 433 kts 72°
2026-05-04 17:45 46.96024 14.09492 33520 ft 431 kts 72°
2026-05-04 17:45 46.96946 14.13655 33244 ft 429 kts 72°
2026-05-04 17:45 46.97565 14.16458 33058 ft 428 kts 72°
2026-05-04 17:45 46.98769 14.21930 32713 ft 425 kts 72°
2026-05-04 17:46 46.99379 14.24710 32529 ft 424 kts 72°
2026-05-04 17:46 47.00278 14.28822 32269 ft 423 kts 72°
2026-05-04 17:46 47.01161 14.32868 32012 ft 422 kts 72°
2026-05-04 17:46 47.02051 14.36949 31751 ft 420 kts 72°
2026-05-04 17:47 47.02938 14.41018 31500 ft 418 kts 72°
2026-05-04 17:47 47.03820 14.45067 31244 ft 416 kts 72°
2026-05-04 17:47 47.04696 14.49098 30921 ft 414 kts 71°
2026-05-04 17:47 47.05565 14.53105 30468 ft 411 kts 72°
2026-05-04 17:48 47.06422 14.57083 30014 ft 408 kts 72°
2026-05-04 17:48 47.07272 14.61040 29479 ft 405 kts 72°
2026-05-04 17:48 47.08112 14.64963 28947 ft 402 kts 72°
2026-05-04 17:48 47.08944 14.68857 28448 ft 399 kts 72°
2026-05-04 17:49 47.09770 14.72732 27965 ft 396 kts 71°
2026-05-04 17:49 47.10590 14.76568 27495 ft 393 kts 72°
2026-05-04 17:49 47.11407 14.80382 26993 ft 391 kts 71°
2026-05-04 17:49 47.12219 14.84173 26535 ft 388 kts 72°
2026-05-04 17:50 47.13023 14.87935 26100 ft 385 kts 72°
2026-05-04 17:50 47.13818 14.91659 25667 ft 382 kts 72°
2026-05-04 17:50 47.14607 14.95372 25230 ft 379 kts 72°
2026-05-04 17:50 47.15389 14.99058 24807 ft 376 kts 72°
2026-05-04 17:51 47.16164 15.02720 24393 ft 374 kts 72°
2026-05-04 17:51 47.16937 15.06402 23966 ft 371 kts 72°
2026-05-04 17:51 47.17692 15.10016 23554 ft 369 kts 72°
2026-05-04 17:51 47.18445 15.13611 23079 ft 367 kts 72°
2026-05-04 17:52 47.19184 15.17135 22627 ft 364 kts 72°
2026-05-04 17:52 47.19927 15.20684 22177 ft 362 kts 73°
2026-05-04 17:52 47.20856 15.24090 21734 ft 358 kts 58°
2026-05-04 17:52 47.22348 15.27006 21293 ft 355 kts 49°
2026-05-04 17:53 47.23930 15.29779 20876 ft 354 kts 49°
2026-05-04 17:53 47.25510 15.32533 20475 ft 351 kts 49°
2026-05-04 17:53 47.27084 15.35280 20075 ft 350 kts 50°
2026-05-04 17:53 47.28642 15.38011 19685 ft 348 kts 50°
2026-05-04 17:54 47.30196 15.40733 19308 ft 346 kts 50°
2026-05-04 17:54 47.31718 15.43466 18959 ft 344 kts 52°
2026-05-04 17:54 47.33169 15.46268 18794 ft 344 kts 53°
2026-05-04 17:54 47.34583 15.49121 18621 ft 344 kts 54°
2026-05-04 17:55 47.35980 15.51984 18464 ft 344 kts 54°
2026-05-04 17:55 47.37375 15.54843 18293 ft 344 kts 54°
2026-05-04 17:55 47.38778 15.57695 18119 ft 343 kts 54°
2026-05-04 17:55 47.40188 15.60543 17946 ft 343 kts 54°
2026-05-04 17:56 47.41595 15.63377 17987 ft 343 kts 54°
2026-05-04 17:56 47.43007 15.66222 17984 ft 343 kts 54°
2026-05-04 17:56 47.44420 15.69071 17987 ft 344 kts 54°
2026-05-04 17:56 47.45835 15.71923 17981 ft 344 kts 54°
2026-05-04 17:57 47.47248 15.74774 17978 ft 345 kts 54°
2026-05-04 17:57 47.48666 15.77637 17957 ft 345 kts 54°
2026-05-04 17:57 47.50081 15.80498 17758 ft 345 kts 54°
2026-05-04 17:57 47.51493 15.83358 17545 ft 344 kts 54°
2026-05-04 17:58 47.52900 15.86207 17339 ft 343 kts 54°
2026-05-04 17:58 47.54307 15.89057 17110 ft 342 kts 54°
2026-05-04 17:58 47.55706 15.91896 16907 ft 341 kts 54°
2026-05-04 17:58 47.57102 15.94735 16697 ft 340 kts 54°
2026-05-04 17:59 47.58491 15.97566 16490 ft 340 kts 55°
2026-05-04 17:59 47.59878 16.00397 16284 ft 338 kts 55°
2026-05-04 17:59 47.62635 16.06020 15875 ft 336 kts 54°
2026-05-04 18:00 47.64006 16.08816 15664 ft 335 kts 55°
2026-05-04 18:00 47.65371 16.11608 15402 ft 334 kts 55°
2026-05-04 18:00 47.66726 16.14392 15174 ft 333 kts 55°
2026-05-04 18:00 47.68077 16.17169 14920 ft 331 kts 55°
2026-05-04 18:01 47.69421 16.19928 14671 ft 329 kts 55°
2026-05-04 18:01 47.70760 16.22674 14437 ft 328 kts 55°
2026-05-04 18:01 47.72092 16.25407 14199 ft 326 kts 55°
2026-05-04 18:02 47.74739 16.30860 13714 ft 324 kts 55°
2026-05-04 18:02 47.76053 16.33573 13453 ft 323 kts 56°
2026-05-04 18:02 47.77361 16.36275 13183 ft 322 kts 55°
2026-05-04 18:02 47.78686 16.38951 12929 ft 321 kts 50°
2026-05-04 18:03 47.80391 16.41057 12665 ft 320 kts 28°
2026-05-04 18:03 47.82424 16.42373 12410 ft 319 kts 21°
2026-05-04 18:03 47.84479 16.43607 12154 ft 318 kts 21°
2026-05-04 18:03 47.86521 16.44832 11899 ft 317 kts 21°
2026-05-04 18:04 47.88555 16.46053 11661 ft 315 kts 21°
2026-05-04 18:04 47.90588 16.47274 11465 ft 314 kts 21°
2026-05-04 18:04 47.94628 16.49702 11071 ft 312 kts 21°
2026-05-04 18:05 47.96638 16.50914 10875 ft 311 kts 21°
2026-05-04 18:05 47.98643 16.52123 10684 ft 310 kts 21°
2026-05-04 18:05 48.00640 16.53328 10489 ft 309 kts 21°
2026-05-04 18:05 48.02633 16.54533 10294 ft 308 kts 21°
2026-05-04 18:06 48.06598 16.56930 9997 ft 307 kts 21°
2026-05-04 18:06 48.08576 16.58129 9961 ft 307 kts 22°
2026-05-04 18:06 48.10547 16.59324 9630 ft 305 kts 21°
2026-05-04 18:07 48.12507 16.60510 9241 ft 303 kts 21°
2026-05-04 18:07 48.14457 16.61695 8871 ft 301 kts 21°
2026-05-04 18:07 48.16389 16.62870 8492 ft 299 kts 21°
2026-05-04 18:07 48.18312 16.64037 8092 ft 297 kts 21°
2026-05-04 18:08 48.20229 16.65172 7707 ft 295 kts 17°
2026-05-04 18:08 48.22225 16.65754 7342 ft 291 kts
2026-05-04 18:08 48.24201 16.65577 7128 ft 280 kts 347°
2026-05-04 18:08 48.26071 16.64848 6786 ft 276 kts 342°
2026-05-04 18:09 48.29752 16.63293 6045 ft 273 kts 342°
2026-05-04 18:09 48.33180 16.61191 5337 ft 262 kts 313°
2026-05-04 18:10 48.34118 16.58959 5057 ft 248 kts 281°
2026-05-04 18:10 48.34198 16.56479 4847 ft 234 kts 259°
2026-05-04 18:10 48.33821 16.54151 4540 ft 225 kts 237°
2026-05-04 18:10 48.32772 16.52540 4277 ft 214 kts 205°
2026-05-04 18:11 48.31366 16.51981 4014 ft 208 kts 187°
2026-05-04 18:11 48.29930 16.51729 3741 ft 207 kts 186°
2026-05-04 18:11 48.28510 16.51507 3511 ft 203 kts 185°
2026-05-04 18:11 48.27123 16.51398 3339 ft 197 kts 172°
2026-05-04 18:12 48.25817 16.51917 3207 ft 190 kts 165°
2026-05-04 18:12 48.24590 16.52456 3093 ft 184 kts 165°
2026-05-04 18:12 48.23380 16.52976 2911 ft 177 kts 165°
2026-05-04 18:12 48.22224 16.53469 2682 ft 169 kts 166°
2026-05-04 18:13 48.21119 16.53939 2474 ft 159 kts 166°
2026-05-04 18:13 48.20114 16.54367 2292 ft 141 kts 166°
2026-05-04 18:13 48.18337 16.55129 1896 ft 128 kts 165°
2026-05-04 18:14 48.17486 16.55484 1760 ft 126 kts 165°
2026-05-04 18:14 48.16641 16.55837 1605 ft 126 kts 165°
2026-05-04 18:14 48.15797 16.56196 1436 ft 126 kts 163°
2026-05-04 18:15 48.14101 16.56922 1082 ft 126 kts 160°
2026-05-04 18:15 48.12406 16.57642 743 ft 126 kts 161°
2026-05-04 18:15 48.11571 16.57988 625 ft 117 kts 162°
2026-05-04 18:16 48.10922 16.58267 620 ft 73 kts 165°
2026-05-04 18:16 48.10548 16.58423 620 ft 41 kts 165°
2026-05-04 18:16 48.10301 16.58460 621 ft 32 kts 187°
2026-05-04 18:17 48.10124 16.58367 616 ft 0 kts 238°
2026-05-04 18:17 48.10146 16.58313 620 ft 14 kts 332°
2026-05-04 18:18 48.10237 16.58275 625 ft 13 kts 345°
2026-05-04 18:18 48.10332 16.58234 611 ft 17 kts 343°
2026-05-04 18:18 48.10471 16.58176 618 ft 22 kts 345°
2026-05-04 18:18 48.10616 16.58116 618 ft 21 kts 344°
2026-05-04 18:19 48.10877 16.58002 612 ft 18 kts 343°
2026-05-04 18:19 48.10975 16.57904 617 ft 17 kts 311°
2026-05-04 18:19 48.11047 16.57771 623 ft 18 kts 296°
2026-05-04 18:20 48.11110 16.57576 613 ft 23 kts 296°
2026-05-04 18:20 48.11183 16.57353 612 ft 25 kts 296°
2026-05-04 18:20 48.11262 16.57115 615 ft 26 kts 296°
2026-05-04 18:20 48.11345 16.56863 620 ft 28 kts 296°
2026-05-04 18:21 48.11431 16.56596 617 ft 26 kts 296°
2026-05-04 18:21 48.11505 16.56362 618 ft 26 kts 295°
2026-05-04 18:21 48.11587 16.56114 609 ft 27 kts 297°
2026-05-04 18:21 48.11667 16.55876 621 ft 20 kts 296°
2026-05-04 18:22 48.11719 16.55780 609 ft 10 kts 350°
2026-05-04 18:22 48.11783 16.55818 617 ft 10 kts 26°
2026-05-04 18:22 48.11852 16.55869 614 ft 12 kts 26°
2026-05-04 18:22 48.11932 16.55928 610 ft 14 kts 26°
2026-05-04 18:23 48.11986 16.55934 621 ft 7 kts 301°
2026-05-04 18:23 48.12008 16.55870 622 ft 3 kts 296°
2026-05-04 18:23 48.12008 16.55869 621 ft 0 kts 296°